| time (UTC) | temp F | wind direction | speed MPH | gust MPH | rain 1hr in | rain 24hr in | rain mn in | humidity % | barometer mb |
| 20260505083109 | 50 | 21 | 1.0 | 3.0 | 0.00 | 0.57 | 0.57 | 81 | 1008.5 |
| 20260505082605 | 50 | 77 | 2.0 | 6.0 | 0.00 | 0.57 | 0.57 | 82 | 1008.5 |
| 20260505082102 | 50 | 92 | 1.0 | 2.0 | 0.00 | 0.57 | 0.57 | 82 | 1008.5 |
| 20260505081558 | 51 | 98 | 2.0 | 3.0 | 0.00 | 0.57 | 0.57 | 82 | 1008.1 |
| 20260505081056 | 50 | 65 | 5.0 | 9.0 | 0.00 | 0.57 | 0.57 | 83 | 1008.0 |
| 20260505080552 | 51 | 86 | 0.0 | 0.0 | 0.00 | 0.57 | 0.57 | 83 | 1008.0 |
| 20260505080049 | 51 | 22 | 6.0 | 10.0 | 0.00 | 0.57 | 0.57 | 83 | 1007.8 |
| 20260505075544 | 51 | 64 | 2.0 | 2.0 | 0.00 | 0.57 | 0.57 | 85 | 1008.0 |
| 20260505075042 | 51 | 41 | 6.0 | 8.0 | 0.00 | 0.57 | 0.57 | 86 | 1008.0 |
| 20260505074538 | 51 | 32 | 4.0 | 7.0 | 0.00 | 0.57 | 0.57 | 88 | 1007.7 |
| 20260505074036 | 51 | 17 | 6.0 | 9.0 | 0.00 | 0.57 | 0.57 | 89 | 1007.7 |
| 20260505073533 | 51 | 93 | 2.0 | 2.0 | 0.00 | 0.57 | 0.57 | 89 | 1007.4 |
| 20260505073032 | 52 | 39 | 2.0 | 3.0 | 0.07 | 0.57 | 0.57 | 90 | 1007.2 |
| 20260505072526 | 52 | 50 | 5.0 | 7.0 | 0.07 | 0.57 | 0.57 | 91 | 1006.3 |
| 20260505072023 | 52 | 100 | 1.0 | 2.0 | 0.00 | 0.56 | 0.56 | 91 | 1006.3 |
| 20260505071519 | 52 | 67 | 1.0 | 3.0 | 0.00 | 0.56 | 0.56 | 91 | 1006.4 |
| 20260505071017 | 52 | 94 | 0.0 | 0.0 | 0.00 | 0.56 | 0.56 | 91 | 1006.5 |
| 20260505070514 | 52 | 80 | 3.0 | 3.0 | 0.00 | 0.56 | 0.56 | 90 | 1006.6 |
| 20260505070010 | 53 | 46 | 1.0 | 2.0 | 0.00 | 0.56 | 0.56 | 90 | 1007.0 |
| 20260505065506 | 53 | 73 | 3.0 | 4.0 | 0.05 | 0.56 | 0.56 | 90 | 1007.2 |
| 20260505065003 | 53 | 42 | 7.0 | 9.0 | 0.12 | 0.56 | 0.56 | 90 | 1007.4 |
| 20260505064459 | 53 | 27 | 7.0 | 9.0 | 0.12 | 0.55 | 0.55 | 90 | 1007.4 |
| 20260505063958 | 53 | 26 | 6.0 | 9.0 | 0.19 | 0.54 | 0.54 | 90 | 1007.3 |
| 20260505063455 | 53 | 69 | 2.0 | 6.0 | 0.26 | 0.53 | 0.53 | 89 | 1008.5 |
| 20260505062951 | 53 | 52 | 2.0 | 7.0 | 0.66 | 0.52 | 0.52 | 89 | 1009.0 |
| 20260505062448 | 54 | 27 | 9.0 | 10.0 | 2.62 | 0.49 | 0.49 | 88 | 1009.3 |
| 20260505061944 | 55 | 15 | 8.0 | 10.0 | 2.27 | 0.38 | 0.38 | 85 | 1009.8 |
| 20260505061443 | 61 | 304 | 7.0 | 13.0 | 0.24 | 0.04 | 0.04 | 74 | 1010.7 |
| 20260505060940 | 63 | 355 | 8.0 | 10.0 | 0.00 | 0.00 | 0.00 | 60 | 1008.4 |
| 20260505060437 | 65 | 83 | 3.0 | 7.0 | 0.00 | 0.00 | 0.00 | 55 | 1007.2 |
| 20260505055933 | 68 | 37 | 8.0 | 11.0 | 0.00 | 0.00 | 0.00 | 48 | 1006.5 |
| 20260505055429 | 68 | 77 | 6.0 | 10.0 | 0.00 | 0.00 | 0.00 | 51 | 1006.0 |
| 20260505054926 | 68 | 17 | 4.0 | 6.0 | 0.00 | 0.00 | 0.00 | 74 | 1005.5 |
| 20260505054424 | 68 | 73 | 1.0 | 1.0 | 0.00 | 0.00 | 0.00 | 77 | 1005.2 |
| 20260505053921 | 68 | 88 | 0.0 | 0.0 | 0.00 | 0.00 | 0.00 | 76 | 1005.1 |
| 20260505053418 | 67 | 69 | 0.0 | 0.0 | 0.00 | 0.00 | 0.00 | 77 | 1005.0 |
| 20260505052915 | 67 | 80 | 0.0 | 0.0 | 0.00 | 0.00 | 0.00 | 77 | 1005.1 |
| 20260505052412 | 66 | 81 | 0.0 | 0.0 | 0.00 | 0.00 | 0.00 | 78 | 1004.9 |
| 20260505051909 | 66 | 84 | 0.0 | 0.0 | 0.00 | 0.00 | 0.00 | 79 | 1004.6 |
| 20260505051406 | 66 | 89 | 0.0 | 0.0 | 0.00 | 0.00 | 0.00 | 79 | 1004.6 |
| 20260505050905 | 66 | 93 | 0.0 | 0.0 | 0.00 | 0.00 | 0.00 | 80 | 1004.7 |
| 20260505050402 | 66 | 93 | 0.0 | 0.0 | 0.00 | 0.00 | 0.00 | 80 | 1004.4 |
| 20260505041330 | 66 | 95 | 0.0 | 0.0 | 0.00 | 0.00 | 0.00 | 82 | 1004.6 |
| 20260505040827 | 66 | 91 | 0.0 | 0.0 | 0.00 | 0.00 | 0.00 | 83 | 1004.5 |
| 20260505040325 | 65 | 94 | 0.0 | 0.0 | 0.00 | 0.00 | 0.00 | 83 | 1004.8 |
| 20260505035821 | 65 | 90 | 0.0 | 0.0 | 0.00 | 0.00 | 0.00 | 83 | 1004.8 |
| 20260505035317 | 65 | 91 | 0.0 | 0.0 | 0.00 | 0.00 | 0.00 | 83 | 1004.9 |
| 20260505034815 | 65 | 85 | 0.0 | 1.0 | 0.00 | 0.00 | 0.00 | 84 | 1005.0 |
| 20260505034311 | 65 | 97 | 0.0 | 0.0 | 0.00 | 0.00 | 0.00 | 84 | 1005.2 |
| 20260505033808 | 64 | 93 | 0.0 | 0.0 | 0.00 | 0.00 | 0.00 | 84 | 1005.1 |
| 20260505033305 | 64 | 93 | 0.0 | 0.0 | 0.00 | 0.00 | 0.00 | 84 | 1005.2 |
| 20260505032803 | 64 | 92 | 0.0 | 0.0 | 0.00 | 0.00 | 0.00 | 83 | 1005.4 |
| 20260505032253 | 64 | 92 | 0.0 | 0.0 | 0.00 | 0.00 | 0.00 | 82 | 1005.0 |
| 20260505031750 | 64 | 92 | 0.0 | 0.0 | 0.00 | 0.00 | 0.00 | 82 | 1005.1 |
| 20260505031246 | 64 | 92 | 0.0 | 0.0 | 0.00 | 0.00 | 0.00 | 81 | 1005.2 |
| 20260505030744 | 64 | 92 | 0.0 | 0.0 | 0.00 | 0.00 | 0.00 | 81 | 1005.1 |
| 20260505030240 | 65 | 92 | 0.0 | 0.0 | 0.00 | 0.00 | 0.00 | 80 | 1005.1 |
| 20260505025735 | 65 | 92 | 0.0 | 0.0 | 0.00 | 0.00 | 0.00 | 79 | 1004.8 |
| 20260505025234 | 65 | 92 | 0.0 | 0.0 | 0.00 | 0.00 | 0.00 | 79 | 1005.0 |
| 20260505024732 | 66 | 92 | 0.0 | 0.0 | 0.00 | 0.00 | 0.00 | 78 | 1004.8 |
| 20260505024229 | 66 | 92 | 0.0 | 0.0 | 0.00 | 0.00 | 0.00 | 78 | 1004.9 |
| 20260505023726 | 66 | 92 | 0.0 | 0.0 | 0.00 | 0.00 | 0.00 | 77 | 1004.8 |
| 20260505023223 | 67 | 91 | 0.0 | 0.0 | 0.00 | 0.00 | 0.00 | 76 | 1004.3 |
| 20260505022721 | 67 | 90 | 0.0 | 0.0 | 0.00 | 0.00 | 0.00 | 75 | 1004.4 |
| 20260505022217 | 68 | 90 | 0.0 | 0.0 | 0.00 | 0.00 | 0.00 | 75 | 1004.4 |
| 20260505021715 | 68 | 90 | 0.0 | 0.0 | 0.00 | 0.00 | 0.00 | 74 | 1004.3 |
| 20260505021212 | 68 | 90 | 0.0 | 0.0 | 0.00 | 0.00 | 0.00 | 73 | 1004.2 |
| 20260505020707 | 69 | 91 | 0.0 | 0.0 | 0.00 | 0.00 | 0.00 | 72 | 1003.9 |
| 20260505020203 | 69 | 91 | 0.0 | 0.0 | 0.00 | 0.00 | 0.00 | 71 | 1003.8 |
| 20260505015700 | 70 | 90 | 0.0 | 0.0 | 0.00 | 0.00 | 0.00 | 70 | 1004.0 |
| 20260505015157 | 70 | 91 | 0.0 | 0.0 | 0.00 | 0.00 | 0.00 | 70 | 1004.1 |
| 20260505014654 | 71 | 90 | 0.0 | 0.0 | 0.00 | 0.00 | 0.00 | 69 | 1003.8 |
| 20260505014150 | 71 | 95 | 0.0 | 0.0 | 0.00 | 0.00 | 0.00 | 68 | 1003.9 |
| 20260505013648 | 71 | 92 | 0.0 | 0.0 | 0.00 | 0.00 | 0.00 | 68 | 1003.8 |
| 20260505013145 | 72 | 93 | 0.0 | 0.0 | 0.00 | 0.00 | 0.00 | 67 | 1003.7 |
| 20260505012643 | 73 | 94 | 0.0 | 0.0 | 0.00 | 0.00 | 0.00 | 66 | 1003.9 |
| 20260505012140 | 73 | 93 | 0.0 | 0.0 | 0.00 | 0.00 | 0.00 | 64 | 1003.6 |
| 20260505011636 | 74 | 105 | 0.0 | 0.0 | 0.00 | 0.00 | 0.00 | 63 | 1003.6 |
| 20260505011133 | 74 | 116 | 1.0 | 1.0 | 0.00 | 0.00 | 0.00 | 62 | 1003.5 |
| 20260505010633 | 74 | 138 | 2.0 | 3.0 | 0.00 | 0.00 | 0.00 | 61 | 1003.3 |
| 20260505010130 | 75 | 76 | 0.0 | 0.0 | 0.00 | 0.00 | 0.00 | 61 | 1003.2 |
| 20260505005626 | 75 | 105 | 0.0 | 0.0 | 0.00 | 0.00 | 0.00 | 60 | 1003.3 |
| 20260505005124 | 76 | 92 | 0.0 | 0.0 | 0.00 | 0.00 | 0.00 | 60 | 1003.0 |
| 20260505004621 | 76 | 93 | 0.0 | 0.0 | 0.00 | 0.00 | 0.00 | 59 | 1003.2 |
| 20260505004117 | 77 | 144 | 1.0 | 2.0 | 0.00 | 0.00 | 0.00 | 57 | 1002.9 |
| 20260505003615 | 77 | 128 | 0.0 | 0.0 | 0.00 | 0.00 | 0.00 | 57 | 1003.0 |
| 20260505003112 | 77 | 91 | 2.0 | 2.0 | 0.00 | 0.00 | 0.00 | 56 | 1002.9 |
| 20260505002608 | 78 | 99 | 0.0 | 0.0 | 0.00 | 0.00 | 0.00 | 56 | 1002.9 |
| 20260505002102 | 78 | 121 | 1.0 | 1.0 | 0.00 | 0.00 | 0.00 | 55 | 1003.0 |
| 20260505001558 | 78 | 112 | 1.0 | 1.0 | 0.00 | 0.00 | 0.00 | 55 | 1002.9 |
| 20260505001055 | 78 | 195 | 2.0 | 3.0 | 0.00 | 0.00 | 0.00 | 54 | 1003.0 |
| 20260505000552 | 78 | 146 | 0.0 | 1.0 | 0.00 | 0.00 | 0.00 | 55 | 1003.0 |
| 20260505000050 | 78 | 108 | 2.0 | 3.0 | 0.00 | 0.00 | 0.00 | 55 | 1002.9 |
| 20260504235546 | 79 | 93 | 0.0 | 0.0 | 0.00 | 0.00 | 0.00 | 55 | 1002.8 |
| 20260504235043 | 80 | 118 | 0.0 | 1.0 | 0.00 | 0.00 | 0.00 | 53 | 1002.9 |
| 20260504234540 | 80 | 97 | 2.0 | 2.0 | 0.00 | 0.00 | 0.00 | 53 | 1003.1 |
| 20260504234037 | 80 | 94 | 0.0 | 1.0 | 0.00 | 0.00 | 0.00 | 53 | 1003.1 |
| 20260504233532 | 80 | 93 | 0.0 | 0.0 | 0.00 | 0.00 | 0.00 | 52 | 1003.2 |
| 20260504233029 | 81 | 107 | 0.0 | 0.0 | 0.00 | 0.00 | 0.00 | 52 | 1003.0 |
| 20260504232526 | 81 | 143 | 1.0 | 2.0 | 0.00 | 0.00 | 0.00 | 51 | 1003.2 |
| 20260504232024 | 81 | 113 | 0.0 | 1.0 | 0.00 | 0.00 | 0.00 | 52 | 1003.2 |
| 20260504231520 | 82 | 84 | 0.0 | 0.0 | 0.00 | 0.00 | 0.00 | 51 | 1003.1 |
| 20260504231016 | 84 | 66 | 1.0 | 1.0 | 0.00 | 0.00 | 0.00 | 47 | 1003.1 |
| 20260504230513 | 83 | 96 | 0.0 | 0.0 | 0.00 | 0.00 | 0.00 | 51 | 1003.2 |
| 20260504230007 | 84 | 97 | 0.0 | 0.0 | 0.00 | 0.00 | 0.00 | 47 | 1003.2 |
| 20260504225503 | 85 | 90 | 0.0 | 0.0 | 0.00 | 0.00 | 0.00 | 46 | 1003.1 |
| 20260504225000 | 86 | 80 | 0.0 | 0.0 | 0.00 | 0.00 | 0.00 | 47 | 1003.1 |
| 20260504224456 | 85 | 87 | 0.0 | 0.0 | 0.00 | 0.00 | 0.00 | 43 | 1003.0 |
| 20260504223953 | 85 | 85 | 0.0 | 0.0 | 0.00 | 0.00 | 0.00 | 42 | 1002.9 |
| 20260504223450 | 84 | 94 | 0.0 | 0.0 | 0.00 | 0.00 | 0.00 | 46 | 1003.1 |
| 20260504222946 | 84 | 85 | 0.0 | 0.0 | 0.00 | 0.00 | 0.00 | 45 | 1002.9 |
| 20260504222444 | 83 | 88 | 0.0 | 1.0 | 0.00 | 0.00 | 0.00 | 45 | 1002.9 |
| 20260504221941 | 84 | 86 | 0.0 | 0.0 | 0.00 | 0.00 | 0.00 | 45 | 1003.1 |
| 20260504221438 | 84 | 84 | 0.0 | 0.0 | 0.00 | 0.00 | 0.00 | 44 | 1003.0 |
| 20260504220934 | 84 | 96 | 0.0 | 0.0 | 0.00 | 0.00 | 0.00 | 46 | 1003.0 |
| 20260504220431 | 84 | 99 | 0.0 | 0.0 | 0.00 | 0.00 | 0.00 | 45 | 1003.1 |
| 20260504215928 | 85 | 97 | 0.0 | 0.0 | 0.00 | 0.00 | 0.00 | 42 | 1002.9 |
| 20260504215425 | 87 | 129 | 1.0 | 2.0 | 0.00 | 0.00 | 0.00 | 40 | 1003.1 |
| 20260504214921 | 87 | 108 | 1.0 | 1.0 | 0.00 | 0.00 | 0.00 | 44 | 1003.0 |
| 20260504214418 | 86 | 151 | 1.0 | 2.0 | 0.00 | 0.00 | 0.00 | 42 | 1003.0 |
| 20260504213915 | 85 | 111 | 1.0 | 2.0 | 0.00 | 0.00 | 0.00 | 43 | 1003.3 |
| 20260504213411 | 86 | 142 | 1.0 | 2.0 | 0.00 | 0.00 | 0.00 | 42 | 1003.2 |
| 20260504212909 | 86 | 96 | 0.0 | 0.0 | 0.00 | 0.00 | 0.00 | 44 | 1003.3 |
| 20260504212404 | 84 | 102 | 0.0 | 0.0 | 0.00 | 0.00 | 0.00 | 45 | 1003.5 |
| 20260504211902 | 84 | 155 | 0.0 | 0.0 | 0.00 | 0.00 | 0.00 | 46 | 1003.3 |
| 20260504211358 | 83 | 96 | 0.0 | 0.0 | 0.00 | 0.00 | 0.00 | 45 | 1003.3 |
| 20260504210855 | 82 | 108 | 0.0 | 0.0 | 0.00 | 0.00 | 0.00 | 47 | 1003.6 |
| 20260504210351 | 82 | 95 | 0.0 | 0.0 | 0.00 | 0.00 | 0.00 | 45 | 1003.6 |
| 20260504205849 | 82 | 154 | 0.0 | 1.0 | 0.00 | 0.00 | 0.00 | 44 | 1003.6 |
| 20260504205347 | 82 | 125 | 0.0 | 1.0 | 0.00 | 0.00 | 0.00 | 46 | 1003.9 |
| 20260504204844 | 83 | 93 | 0.0 | 1.0 | 0.00 | 0.00 | 0.00 | 43 | 1004.0 |
| 20260504204343 | 84 | 110 | 0.0 | 0.0 | 0.00 | 0.00 | 0.00 | 43 | 1003.9 |
| 20260504203843 | 84 | 125 | 1.0 | 2.0 | 0.00 | 0.00 | 0.00 | 42 | 1004.1 |
| 20260504203339 | 84 | 102 | 2.0 | 3.0 | 0.00 | 0.00 | 0.00 | 44 | 1004.0 |
| 20260504202835 | 84 | 118 | 0.0 | 1.0 | 0.00 | 0.00 | 0.00 | 45 | 1004.1 |
| 20260504202332 | 84 | 110 | 0.0 | 0.0 | 0.00 | 0.00 | 0.00 | 43 | 1004.1 |
| 20260504201828 | 85 | 90 | 0.0 | 0.0 | 0.00 | 0.00 | 0.00 | 43 | 1004.3 |
| 20260504201326 | 85 | 65 | 1.0 | 2.0 | 0.00 | 0.00 | 0.00 | 41 | 1004.2 |
| 20260504200823 | 86 | 192 | 2.0 | 2.0 | 0.00 | 0.00 | 0.00 | 43 | 1004.3 |
| 20260504200320 | 84 | 109 | 1.0 | 1.0 | 0.00 | 0.00 | 0.00 | 43 | 1004.5 |
| 20260504195816 | 83 | 128 | 2.0 | 3.0 | 0.00 | 0.00 | 0.00 | 41 | 1004.5 |
| 20260504195312 | 84 | 133 | 2.0 | 3.0 | 0.00 | 0.00 | 0.00 | 41 | 1004.2 |
| 20260504194809 | 84 | 142 | 1.0 | 1.0 | 0.00 | 0.00 | 0.00 | 42 | 1004.4 |
| 20260504194305 | 84 | 106 | 2.0 | 3.0 | 0.00 | 0.00 | 0.00 | 41 | 1004.5 |
| 20260504193801 | 84 | 101 | 2.0 | 3.0 | 0.00 | 0.00 | 0.00 | 43 | 1004.5 |
| 20260504193259 | 84 | 171 | 3.0 | 3.0 | 0.00 | 0.00 | 0.00 | 42 | 1004.5 |
| 20260504192757 | 84 | 132 | 0.0 | 1.0 | 0.00 | 0.00 | 0.00 | 46 | 1004.6 |
| 20260504192254 | 84 | 98 | 0.0 | 0.0 | 0.00 | 0.00 | 0.00 | 45 | 1004.6 |
| 20260504191753 | 83 | 156 | 2.0 | 2.0 | 0.00 | 0.00 | 0.00 | 48 | 1004.6 |
| 20260504191249 | 83 | 115 | 1.0 | 1.0 | 0.00 | 0.00 | 0.00 | 46 | 1004.6 |
| 20260504190745 | 83 | 156 | 2.0 | 2.0 | 0.00 | 0.00 | 0.00 | 43 | 1004.4 |
| 20260504190242 | 83 | 122 | 0.0 | 1.0 | 0.00 | 0.00 | 0.00 | 47 | 1004.6 |
| 20260504185738 | 82 | 200 | 2.0 | 3.0 | 0.00 | 0.00 | 0.00 | 43 | 1004.8 |
| 20260504185235 | 82 | 65 | 2.0 | 3.0 | 0.00 | 0.00 | 0.00 | 43 | 1004.7 |
| 20260504184732 | 83 | 15 | 1.0 | 2.0 | 0.00 | 0.00 | 0.00 | 43 | 1004.7 |
| 20260504184227 | 83 | 131 | 2.0 | 2.0 | 0.00 | 0.00 | 0.00 | 43 | 1004.7 |
| 20260504183723 | 83 | 99 | 2.0 | 2.0 | 0.00 | 0.00 | 0.00 | 47 | 1004.9 |
| 20260504183221 | 83 | 287 | 2.0 | 3.0 | 0.00 | 0.00 | 0.00 | 43 | 1005.0 |
| 20260504182718 | 83 | 281 | 4.0 | 6.0 | 0.00 | 0.00 | 0.00 | 43 | 1004.9 |
| 20260504182215 | 83 | 116 | 2.0 | 3.0 | 0.00 | 0.00 | 0.00 | 43 | 1004.8 |
| 20260504181713 | 83 | 140 | 3.0 | 6.0 | 0.00 | 0.00 | 0.00 | 41 | 1004.8 |
| 20260504181210 | 83 | 175 | 2.0 | 2.0 | 0.00 | 0.00 | 0.00 | 41 | 1004.9 |
| 20260504180709 | 83 | 172 | 2.0 | 2.0 | 0.00 | 0.00 | 0.00 | 42 | 1004.8 |
| 20260504180208 | 83 | 89 | 1.0 | 2.0 | 0.00 | 0.00 | 0.00 | 43 | 1004.8 |
| 20260504175704 | 83 | 144 | 1.0 | 1.0 | 0.00 | 0.00 | 0.00 | 45 | 1005.1 |
| 20260504175201 | 82 | 129 | 1.0 | 2.0 | 0.00 | 0.00 | 0.00 | 44 | 1004.9 |
| 20260504174659 | 81 | 219 | 3.0 | 6.0 | 0.00 | 0.00 | 0.00 | 42 | 1005.2 |
| 20260504174156 | 82 | 173 | 3.0 | 3.0 | 0.00 | 0.00 | 0.00 | 42 | 1005.1 |
| 20260504173653 | 81 | 156 | 1.0 | 1.0 | 0.00 | 0.00 | 0.00 | 43 | 1005.2 |
| 20260504173150 | 81 | 143 | 4.0 | 6.0 | 0.00 | 0.00 | 0.00 | 42 | 1004.9 |
| 20260504172647 | 80 | 106 | 3.0 | 4.0 | 0.00 | 0.00 | 0.00 | 43 | 1004.8 |
| 20260504172143 | 80 | 218 | 3.0 | 4.0 | 0.00 | 0.00 | 0.00 | 45 | 1005.1 |
| 20260504171639 | 80 | 176 | 0.0 | 1.0 | 0.00 | 0.00 | 0.00 | 45 | 1005.3 |
| 20260504171137 | 80 | 117 | 2.0 | 3.0 | 0.00 | 0.00 | 0.00 | 46 | 1005.1 |
| 20260504170633 | 80 | 114 | 0.0 | 1.0 | 0.00 | 0.00 | 0.00 | 47 | 1005.1 |
| 20260504170131 | 80 | 104 | 1.0 | 2.0 | 0.00 | 0.00 | 0.00 | 44 | 1005.2 |
| 20260504151016 | 75 | 68 | 1.0 | 2.0 | 0.00 | 0.00 | 0.00 | 50 | 1005.4 |
| 20260504150513 | 74 | 88 | 3.0 | 4.0 | 0.00 | 0.00 | 0.00 | 51 | 1005.7 |
| 20260504140934 | 66 | 158 | 2.0 | 3.0 | 0.00 | 0.00 | 0.00 | 61 | 1005.3 |
| 20260504140430 | 66 | 157 | 2.0 | 2.0 | 0.00 | 0.00 | 0.00 | 60 | 1005.4 |
| 20260504130354 | 64 | 178 | 2.0 | 2.0 | 0.00 | 0.00 | 0.00 | 62 | 1005.5 |
| 20260504120317 | 61 | 127 | 3.0 | 4.0 | 0.00 | 0.00 | 0.00 | 63 | 1005.4 |
| 20260504110241 | 62 | 108 | 1.0 | 2.0 | 0.00 | 0.00 | 0.00 | 60 | 1005.3 |
| 20260504100200 | 63 | 175 | 2.0 | 3.0 | 0.00 | 0.00 | 0.00 | 57 | 1005.4 |
| 20260504090122 | 64 | 109 | 2.0 | 3.0 | 0.00 | 0.00 | 0.00 | 55 | 1006.1 |